CAPE
0 0 0 0 0 0 1 4 0 0 0 0 0 0 0 0 0 11 16 0 0 0 0 1 139 675 975 834 673 553 620 790 916 890 1089 1121 1278 1425 1579 1600 1630 1601 1596 1517 1448 1431 1434 1167 919
0 0 0 0 0 4 4 0 0 0 0 0 0 0 0 0 0 16 7 3 0 0 0 14 118 518 948 837 632 469 568 765 859 807 886 937 1130 1270 1430 1448 1429 1508 1556 1507 1456 1458 1341 793 585
0 0 0 0 0 0 0 0 0 0 0 0 0 0 0 0 0 4 52 19 0 0 0 12 48 485 813 704 536 428 524 657 639 624 786 788 872 1086 1265 1373 1407 1488 1438 1332 1227 1079 777 417 328
0 0 0 0 0 0 0 0 0 0 0 0 0 0 0 5 0 17 53 26 0 0 0 0 10 380 642 546 441 418 288 405 413 514 589 616 533 766 966 1125 1307 1430 1346 1067 823 556 408 335 212
0 0 0 0 0 0 0 0 0 0 0 0 0 0 35 100 31 35 30 22 11 13 63 0 0 204 439 372 398 309 83 148 266 333 363 323 351 524 710 758 951 1141 1040 761 452 214 103 85 28
0 0 0 0 0 0 0 0 0 0 0 0 0 0 137 149 61 10 41 21 28 40 179 0 0 29 241 305 256 52 12 64 158 205 238 269 240 273 455 618 693 757 622 422 161 288 220 84 0
0 0 0 0 0 0 0 0 0 0 0 0 0 0 248 76 25 27 91 79 44 81 122 0 0 0 15 91 5 0 0 38 76 130 114 170 98 116 305 478 548 517 261 103 164 224 120 5 0
0 0 0 0 0 0 0 0 0 0 0 0 0 7 105 223 32 102 149 248 196 277 185 65 10 0 0 0 0 0 0 2 29 82 109 62 0 15 156 197 240 312 137 26 49 122 46 0 0
0 0 0 0 0 0 0 0 0 0 25 12 25 356 91 403 97 216 311 417 410 398 309 181 95 41 14 0 0 0 0 0 25 97 158 10 0 0 139 0 11 154 68 32 42 41 0 0 0
0 0 0 0 0 0 0 0 0 0 4 44 199 622 545 286 182 262 344 459 518 422 418 294 238 139 134 11 0 0 0 1 21 40 211 24 0 0 0 0 20 8 38 15 5 8 0 0 148
0 0 0 0 0 0 0 0 0 0 0 39 162 534 741 287 192 239 242 358 432 414 429 412 366 343 265 38 23 0 0 0 0 0 120 9 4 0 0 41 103 0 8 39 24 33 46 108 210
0 0 0 0 0 0 0 0 0 0 0 0 22 441 728 278 171 149 145 249 309 335 361 394 457 427 458 125 102 0 0 0 0 0 102 9 12 39 1 0 13 0 0 3 23 44 67 96 183
0 0 0 0 0 0 0 0 0 0 0 0 0 338 676 387 188 84 38 119 202 249 292 348 406 586 549 483 143 44 2 0 0 0 0 0 0 81 44 0 0 0 0 0 0 6 21 23 100
0 0 0 0 0 0 0 0 0 0 0 0 0 38 736 485 267 56 28 15 108 140 175 376 349 648 614 539 412 277 188 34 0 0 0 36 0 0 0 0 0 0 0 0 0 0 6 32 32
0 0 0 0 0 0 0 0 0 0 0 0 0 6 506 526 334 68 6 0 51 73 78 361 418 639 764 775 613 403 292 174 76 0 50 91 0 0 0 0 0 0 0 0 0 16 22 24 42
0 0 0 0 0 0 0 0 0 0 0 0 0 0 195 532 463 85 0 0 0 31 22 202 208 448 810 779 746 542 363 348 171 88 18 89 64 0 0 0 0 0 0 0 0 0 0 0 0
0 0 0 0 0 0 0 0 0 0 0 0 0 0 6 409 520 128 0 3 0 0 0 91 225 234 774 816 712 685 574 506 308 181 49 124 111 27 0 0 0 0 0 0 0 0 0 0 0
0 0 0 0 0 0 0 0 0 0 0 0 0 0 0 40 423 410 44 27 6 0 0 26 340 305 670 708 758 572 515 605 416 307 175 149 224 129 37 0 0 0 0 0 0 0 0 0 0
0 0 0 0 0 0 0 0 0 0 0 0 0 0 0 0 1 100 91 79 61 10 0 14 283 467 466 589 617 512 588 649 596 394 304 253 317 365 137 56 6 7 0 0 0 4 0 0 0
0 0 0 0 0 0 0 0 0 0 0 0 0 0 0 0 0 0 11 101 136 104 214 258 259 575 575 596 562 476 480 557 535 553 471 414 378 461 392 167 49 12 1 4 9 3 0 0 0
0 0 0 0 0 0 0 0 0 0 0 0 0 0 0 0 0 0 0 0 23 109 270 387 758 892 830 673 648 578 601 588 534 597 603 573 513 523 570 435 225 81 35 30 34 40 26 2 3
0 0 0 0 0 0 0 0 0 0 0 0 0 0 0 0 0 0 0 0 0 0 9 263 525 906 1414 1339 934 834 782 732 741 762 755 809 707 664 655 656 576 355 215 77 109 93 95 60 20
0 0 0 0 0 0 0 0 0 0 0 0 0 0 0 0 0 0 0 0 0 0 0 0 0 204 900 1570 1556 1354 1269 1172 1159 1082 1003 966 1030 832 787 797 709 623 553 375 156 147 171 196 120
0 0 0 0 0 0 0 0 0 0 0 0 0 0 0 0 0 0 0 0 0 0 0 0 0 0 0 959 1786 1569 1571 1466 1292 1331 1233 1254 1199 1276 989 874 877 821 746 661 539 330 475 380 320
0 9 1 1 1 0 0 0 0 0 0 0 0 0 0 0 0 0 0 0 0 0 0 0 0 0 0 31 1309 1899 1610 1682 1464 1407 1443 1443 1322 1250 1267 1093 967 963 941 849 698 723 544 663 448
0 0 0 0 0 0 0 0 0 0 0 0 0 0 0 0 0 0 0 0 0 0 0 0 0 0 0 0 370 1683 1883 1672 1812 1473 1519 1546 1402 1340 1320 1278 1160 1099 981 946 868 770 793 749 755
0 13 0 0 0 1 0 0 0 0 0 0 0 0 0 0 0 0 0 0 0 0 0 0 0 0 0 0 7 1123 1731 1660 1568 1582 1471 1382 1604 1383 1246 1276 1129 1128 1007 1034 942 830 766 718 824
0 0 11 7 2 0 0 0 0 0 0 0 0 0 0 0 0 0 0 0 0 0 0 0 0 0 0 0 0 68 1170 1545 1511 1522 1306 1345 1608 1472 1197 1429 1341 1156 1179 1156 1089 1005 967 966 952
22 1 0 10 6 0 0 0 0 0 0 0 0 0 0 0 0 0 0 0 0 0 0 0 0 0 1 0 0 41 300 825 1129 1298 1296 1347 1563 1600 1482 1614 1661 1508 1514 1551 1414 1185 924 980 1065
6 0 37 63 0 17 20 2 0 0 0 0 0 0 0 0 0 0 0 0 0 0 0 0 0 0 54 117 49 0 17 578 990 1173 1236 1281 1390 1587 1702 1658 1784 1863 1921 1971 1604 1297 1042 1081 1058
CIN
-0 -0 -0 -0 -0 -0 -15 -4 -0 -0 -0 -0 -0 -0 -0 -0 -0 -37 -107 -0 -0 -0 -0 -76 -336 -175 -106 -102 -105 -120 -96 -76 -65 -68 -46 -37 -24 -19 -19 -26 -26 -24 -21 -23 -31 -35 -37 -68 -98
-0 -0 -0 -0 -0 -13 -19 -0 -0 -0 -0 -0 -0 -0 -0 -0 -0 -148 -98 -91 -0 -0 -0 -391 -346 -210 -112 -104 -120 -124 -100 -67 -61 -66 -62 -52 -26 -20 -18 -29 -35 -30 -25 -27 -27 -29 -46 -113 -140
-0 -0 -0 -0 -0 -0 -0 -0 -0 -0 -0 -0 -0 -0 -0 -0 -0 -64 -177 -246 -0 -0 -0 -356 -400 -223 -139 -127 -142 -139 -100 -78 -83 -87 -67 -71 -59 -31 -21 -21 -23 -20 -29 -44 -56 -67 -102 -172 -196
-0 -0 -0 -0 -0 -0 -0 -0 -0 -0 -0 -0 -0 -0 -2 -148 -0 -62 -248 -267 -0 -0 -0 -0 -446 -243 -172 -161 -156 -147 -140 -107 -105 -100 -84 -87 -103 -79 -54 -33 -24 -16 -34 -74 -107 -163 -191 -195 -216
-0 -0 -0 -0 -0 -0 -0 -0 -0 -0 -0 -0 -0 -0 -118 -143 -187 -237 -258 -290 -303 -318 -275 -0 -0 -269 -197 -180 -163 -173 -192 -151 -124 -123 -118 -123 -119 -98 -82 -85 -63 -38 -48 -81 -150 -221 -253 -261 -301
-0 -0 -0 -0 -0 -0 -0 -0 -0 -0 -0 -0 -0 -0 -90 -188 -207 -277 -273 -300 -306 -311 -288 -0 -0 -256 -223 -187 -173 -230 -254 -190 -160 -151 -139 -133 -152 -135 -107 -94 -90 -88 -104 -132 -198 -157 -179 -237 -0
-0 -0 -0 -0 -0 -0 -0 -0 -0 -0 -0 -0 -0 -0 -111 -166 -254 -299 -255 -273 -318 -303 -330 -0 -0 -0 -287 -234 -52 -0 -0 -213 -182 -175 -178 -167 -179 -174 -117 -89 -90 -100 -152 -192 -166 -134 -165 -169 -0
-0 -0 -0 -0 -0 -0 -0 -0 -0 -0 -0 -2 -1 -10 -85 -120 -253 -246 -257 -274 -293 -282 -335 -408 -445 -0 -0 -0 -0 -0 -0 -29 -220 -204 -206 -192 -0 -150 -159 -169 -139 -118 -151 -198 -194 -162 -189 -0 -0
-0 -0 -0 -0 -0 -0 -0 -0 -0 -0 -5 -73 -57 -34 -84 -187 -251 -205 -213 -246 -271 -282 -317 -351 -356 -367 -164 -0 -0 -0 -0 -0 -234 -221 -184 -55 -0 -0 -157 -0 -61 -156 -182 -205 -198 -199 -0 -0 -0
-0 -0 -0 -0 -0 -0 -0 -0 -0 -0 -45 -77 -53 -91 -137 -198 -229 -176 -181 -200 -237 -290 -297 -320 -311 -320 -282 -166 -0 -0 -0 -11 -83 -199 -149 -151 -0 -0 -0 -0 -89 -76 -209 -197 -92 -235 -0 -0 -79
-0 -0 -0 -0 -0 -0 -0 -0 -0 -0 -0 -90 -49 -89 -164 -179 -176 -169 -161 -164 -215 -257 -280 -290 -290 -276 -251 -275 -188 -0 -0 -0 -0 -0 -146 -152 -65 -0 -0 -150 -167 -0 -262 -208 -239 -192 -185 -119 -66
-0 -0 -0 -0 -0 -0 -0 -0 -0 -0 -0 -0 -77 -71 -120 -180 -178 -148 -143 -143 -190 -243 -292 -285 -268 -266 -226 -234 -248 -0 -0 -0 -0 -0 -142 -48 -146 -133 -20 -0 -163 -0 -0 -54 -155 -139 -145 -118 -83
-0 -0 -0 -0 -0 -0 -0 -0 -0 -0 -0 -0 -0 -63 -120 -160 -151 -148 -163 -155 -178 -238 -295 -303 -294 -247 -226 -181 -230 -162 -13 -0 -0 -0 -0 -0 -0 -128 -137 -0 -0 -0 -0 -0 -0 -194 -158 -152 -114
-0 -0 -0 -0 -0 -0 -0 -0 -0 -0 -0 -0 -0 -44 -92 -113 -122 -141 -185 -157 -187 -227 -289 -312 -300 -263 -244 -202 -177 -198 -215 -166 -0 -0 -0 -239 -0 -0 -0 -0 -0 -0 -0 -0 -0 -0 -183 -152 -153
-0 -0 -0 -0 -0 -0 -0 -0 -0 -0 -0 -0 -0 -61 -77 -104 -101 -147 -68 -0 -175 -231 -283 -311 -288 -277 -243 -216 -183 -184 -187 -214 -269 -0 -243 -239 -0 -0 -0 -0 -0 -0 -0 -0 -0 -123 -147 -149 -146
-0 -0 -0 -0 -0 -0 -0 -0 -0 -0 -0 -0 -0 -0 -98 -67 -72 -141 -0 -0 -0 -219 -296 -312 -324 -308 -271 -242 -216 -202 -187 -204 -227 -245 -302 -260 -279 -0 -0 -0 -0 -0 -0 -0 -0 -0 -0 -0 -0
-0 -0 -0 -0 -0 -0 -0 -0 -0 -0 -0 -0 -0 -0 -53 -46 -57 -110 -0 -105 -0 -0 -0 -329 -335 -330 -285 -255 -238 -210 -194 -186 -208 -216 -282 -261 -279 -339 -1 -0 -0 -0 -0 -0 -0 -0 -0 -0 -0
-0 -0 -0 -0 -0 -0 -0 -0 -0 -0 -0 -0 -0 -0 -0 -168 -49 -60 -147 -164 -138 -0 -0 -283 -301 -326 -292 -265 -245 -240 -229 -203 -209 -220 -237 -249 -272 -294 -386 -0 -0 -0 -0 -0 -0 -0 -0 -0 -0
-0 -0 -0 -0 -0 -0 -0 -0 -0 -0 -0 -0 -0 -0 -0 -0 -25 -93 -114 -150 -139 -94 -0 -297 -270 -321 -322 -316 -289 -270 -272 -233 -202 -241 -233 -263 -253 -265 -332 -411 -489 -474 -0 -0 -0 -363 -0 -0 -0
-0 -0 -0 -0 -0 -0 -0 -0 -0 -0 -0 -0 -0 -0 -0 -0 -0 -0 -93 -125 -145 -171 -145 -168 -234 -291 -312 -312 -266 -246 -221 -203 -198 -215 -224 -262 -282 -261 -291 -357 -441 -518 -133 -398 -440 -157 -0 -0 -0
-0 -0 -0 -0 -0 -0 -0 -0 -0 -0 -0 -0 -0 -0 -0 -0 -0 -0 -0 -0 -123 -172 -140 -134 -121 -172 -269 -264 -236 -201 -184 -187 -216 -231 -237 -256 -282 -274 -275 -308 -335 -400 -477 -459 -424 -393 -394 -78 -190
-0 -0 -0 -0 -0 -0 -0 -0 -0 -0 -0 -0 -0 -0 -0 -0 -0 -0 -0 -0 -0 -0 -46 -136 -114 -107 -132 -217 -172 -203 -197 -171 -200 -209 -185 -194 -247 -272 -282 -271 -272 -297 -331 -410 -337 -334 -321 -323 -329
-0 -0 -0 -0 -0 -0 -0 -0 -0 -0 -0 -0 -0 -0 -0 -0 -0 -0 -0 -0 -0 -0 -0 -0 -0 -150 -110 -130 -177 -132 -157 -165 -132 -143 -162 -189 -192 -261 -261 -263 -265 -276 -252 -299 -331 -297 -285 -236 -268
-0 -2 -0 -0 -0 -1 -0 -0 -0 -0 -0 -0 -0 -0 -0 -0 -0 -0 -0 -0 -0 -0 -0 -0 -0 -0 -0 -108 -129 -178 -145 -165 -138 -111 -155 -160 -189 -195 -256 -268 -272 -262 -252 -242 -257 -256 -196 -226 -192
-0 -6 -7 -1 -1 -0 -0 -0 -0 -0 -0 -0 -0 -0 -0 -0 -0 -0 -0 -0 -0 -0 -0 -0 -0 -0 -0 -130 -113 -170 -199 -175 -181 -133 -124 -140 -168 -211 -256 -284 -285 -286 -270 -240 -224 -202 -214 -148 -190
-0 -1 -0 -0 -0 -0 -0 -0 -0 -0 -0 -0 -0 -0 -0 -0 -0 -0 -0 -0 -0 -0 -0 -0 -0 -0 -0 -0 -242 -144 -212 -198 -175 -185 -118 -133 -162 -201 -230 -272 -272 -275 -271 -239 -217 -212 -188 -154 -119
-0 -2 -0 -0 -0 -4 -0 -0 -0 -0 -0 -0 -0 -0 -0 -0 -0 -0 -0 -0 -0 -0 -0 -0 -0 -0 -0 -0 -159 -169 -176 -226 -219 -217 -201 -164 -156 -194 -240 -263 -291 -275 -272 -242 -245 -238 -219 -176 -123
-0 -0 -6 -3 -6 -0 -0 -0 -0 -0 -0 -0 -0 -0 -0 -0 -0 -0 -0 -0 -0 -0 -0 -0 -0 -0 -0 -0 -0 -356 -204 -214 -256 -214 -225 -208 -172 -213 -202 -229 -256 -266 -243 -235 -232 -228 -188 -145 -118
-6 -5 -1 -13 -19 -0 -0 -0 -0 -0 -0 -0 -0 -0 -0 -0 -0 -0 -0 -0 -0 -0 -0 -0 -0 -0 -299 -0 -0 -300 -291 -239 -234 -244 -235 -238 -214 -193 -184 -184 -197 -208 -201 -189 -192 -212 -213 -153 -95
-25 -69 -22 -0 -0 -13 -6 -1 -0 -0 -0 -0 -0 -0 -0 -0 -0 -0 -0 -0 -0 -0 -0 -0 -0 -0 -296 -297 -393 -0 -420 -245 -225 -232 -279 -269 -243 -220 -178 -153 -147 -132 -129 -123 -171 -193 -195 -136 -93
Wind_Speed
23 21 22 20 21 19 19 12 14 14 15 18 19 9 11 9 8 16 24 24 26 27 28 28 27 26 27 28 28 29 29 28 30 30 30 30 30 31 31 31 31 31 32 32 31 30 30 31 31
24 23 22 22 24 24 7 12 12 12 13 17 20 18 9 13 11 24 24 25 28 27 28 28 27 27 27 28 28 29 29 29 29 29 29 29 30 30 31 30 30 31 31 31 30 30 30 30 30
25 24 25 25 26 25 16 10 9 12 15 16 18 14 7 8 23 25 22 27 28 28 28 27 28 27 27 27 28 28 28 29 29 29 29 29 30 30 29 29 30 30 30 30 30 30 30 29 28
22 20 27 29 30 26 18 11 9 11 14 15 16 18 20 12 23 21 26 27 27 27 27 27 28 27 27 27 27 27 27 28 29 28 28 28 29 29 29 29 29 30 30 29 29 29 29 28 27
24 27 34 34 34 19 19 16 13 8 11 16 16 15 18 19 22 24 26 27 27 27 26 28 27 27 27 26 26 26 27 27 27 27 28 28 28 28 29 29 29 28 28 28 28 28 27 26 25
27 26 36 37 35 19 19 17 21 4 8 12 12 13 15 17 20 24 25 26 26 27 26 28 28 27 27 26 25 25 26 26 26 26 27 27 27 27 27 27 27 27 27 26 26 26 25 24 24
30 32 39 39 35 14 17 19 21 2 4 8 10 11 12 14 18 21 22 24 24 25 24 26 27 27 26 26 25 24 24 25 26 25 25 25 27 27 26 26 25 24 24 24 25 24 23 23 22
31 34 41 41 38 23 14 20 19 22 1 6 7 7 9 12 17 19 21 21 23 22 23 24 25 26 26 26 25 24 24 23 24 24 23 23 24 26 26 26 25 24 24 23 23 22 21 21 21
30 34 37 38 31 31 16 20 14 22 15 4 4 16 10 13 15 17 19 19 21 22 22 23 23 24 25 26 25 25 23 23 23 23 23 22 23 23 23 25 22 24 23 22 21 20 20 19 19
33 35 39 35 33 33 21 25 16 19 17 7 4 10 9 12 14 15 17 18 20 22 22 23 23 23 23 24 24 24 24 24 24 24 22 23 23 21 22 20 20 21 21 21 20 19 17 18 17
35 44 39 36 29 27 27 26 22 26 14 11 7 4 5 10 11 12 14 16 19 20 21 22 23 22 23 22 22 24 23 23 23 24 22 24 20 19 20 16 17 18 18 18 17 15 16 16 17
44 43 41 41 31 33 34 29 27 29 28 23 12 6 7 9 11 12 12 14 17 18 20 22 22 22 23 22 20 22 23 23 22 23 23 23 22 17 17 17 15 16 14 17 14 14 13 12 10
41 42 41 39 38 34 35 37 33 31 26 22 21 11 9 10 10 12 12 12 15 16 18 20 21 21 21 23 20 21 21 21 21 20 21 22 21 18 16 16 12 13 13 13 13 12 9 9 7
40 43 45 44 40 39 39 40 36 37 28 23 23 20 11 12 12 12 14 12 12 15 17 18 19 19 20 22 19 20 19 18 20 20 20 22 19 17 17 16 14 12 12 10 11 9 8 6 4
41 48 41 44 43 41 39 49 48 38 29 30 23 20 16 14 13 14 15 14 12 13 15 16 18 17 18 19 20 19 18 19 19 19 17 18 21 17 17 17 15 15 12 10 8 6 5 3 3
43 45 51 47 41 42 40 55 43 35 35 29 25 22 20 18 16 15 13 13 12 10 13 14 15 16 17 16 17 18 18 18 18 19 16 17 20 20 15 17 15 15 13 11 10 7 7 5 5
46 50 51 51 42 40 40 50 48 36 35 40 32 28 23 21 19 17 16 14 13 12 11 13 12 14 15 15 14 16 16 16 19 17 20 18 20 23 20 20 18 15 16 14 11 10 8 7 7
52 51 55 55 39 41 45 46 44 37 44 37 36 33 26 24 22 20 18 16 14 13 12 12 11 11 12 11 11 11 13 14 15 17 18 19 19 22 22 21 21 18 19 18 17 15 12 12 10
50 54 55 48 47 42 43 51 43 43 39 38 37 40 34 29 24 21 21 19 18 16 15 14 13 12 11 12 12 12 13 12 13 15 17 17 17 19 21 20 16 16 17 16 14 13 13 11 9
54 55 59 51 42 44 46 51 45 44 43 44 39 38 40 32 29 25 21 22 21 19 18 16 15 14 15 13 13 12 12 13 12 12 13 16 16 15 17 19 17 16 14 14 13 12 9 9 8
55 55 56 55 42 43 44 53 51 45 42 43 43 39 42 41 33 30 27 22 22 22 21 19 18 17 17 16 16 16 15 14 14 14 14 16 17 17 17 18 17 15 15 13 13 12 12 9 7
58 47 49 51 52 55 42 64 54 47 48 45 43 43 41 41 39 38 34 30 28 26 25 23 21 20 19 19 20 19 19 20 19 18 17 16 17 18 18 18 17 17 14 15 12 12 12 11 11
59 45 45 49 53 53 56 57 61 49 49 46 45 44 46 42 41 42 39 36 30 28 30 29 30 30 25 23 22 23 23 21 21 21 19 18 18 19 19 19 19 18 17 15 15 12 13 13 13
46 48 47 47 50 61 61 60 68 55 48 47 41 36 37 42 42 42 41 44 43 39 35 31 31 31 31 28 26 26 25 23 23 21 20 20 20 19 19 19 19 19 18 18 16 16 14 14 14
48 46 54 58 57 66 56 59 64 43 49 46 43 39 36 35 38 41 40 41 42 41 39 35 31 33 32 30 29 27 27 25 26 24 23 21 21 20 20 20 19 19 19 18 17 16 16 16 16
46 52 58 60 60 61 54 66 62 56 51 43 38 33 30 32 28 34 37 39 39 36 35 36 36 37 34 32 30 28 27 29 27 26 26 23 22 21 21 21 21 20 19 19 18 18 17 17 17
48 50 53 60 59 59 58 46 52 53 47 47 41 38 40 38 38 38 26 35 35 37 34 34 34 34 32 31 31 29 28 28 27 26 26 27 24 23 23 22 22 21 20 18 18 18 18 17 16
47 43 49 53 66 71 60 51 43 40 47 47 46 47 45 42 40 34 30 32 32 31 31 26 27 30 29 30 29 30 30 29 29 30 29 27 26 25 24 23 22 22 20 19 18 18 17 17 17
35 47 51 50 49 64 70 62 49 45 31 28 26 24 24 26 30 31 31 30 29 26 25 29 29 30 32 33 31 32 32 32 31 31 31 30 28 26 26 24 23 22 21 20 19 19 18 17 17
43 37 40 56 60 53 60 61 44 45 46 48 43 40 39 39 34 29 31 34 33 33 30 28 28 31 33 34 35 38 38 36 35 34 33 33 32 29 27 25 24 23 22 21 20 19 18 17 18
Wind_Direction
268 275 264 227 211 188 203 6 306 13 29 17 15 277 314 307 263 119 99 104 106 107 113 115 112 109 114 115 115 118 119 117 122 126 125 128 124 125 123 120 116 116 118 114 107 99 98 98 99
273 275 259 229 214 200 159 22 44 358 13 41 44 110 310 341 330 90 95 105 114 110 115 117 116 112 112 115 116 118 119 121 122 127 127 129 131 131 127 124 120 119 117 115 108 105 102 101 102
269 271 243 228 208 223 330 339 16 10 56 50 47 355 276 277 90 101 97 110 113 115 119 118 120 115 114 114 115 117 119 124 124 128 129 132 133 134 134 128 125 120 116 115 114 111 110 106 104
279 279 255 241 226 231 285 306 19 48 79 75 53 34 37 179 93 103 109 114 114 117 123 120 122 121 117 117 116 118 119 123 126 129 131 132 133 135 136 132 127 126 122 117 113 112 113 114 110
273 261 245 230 229 285 276 287 298 51 53 107 114 53 46 55 82 96 111 117 120 121 119 127 125 126 124 120 119 119 121 123 125 128 132 135 136 135 134 134 128 126 127 122 118 114 115 113 114
267 267 247 237 228 279 277 283 263 8 49 88 77 47 36 67 87 104 114 120 123 126 121 130 132 130 131 127 124 122 124 126 127 126 130 137 144 136 135 134 128 126 127 122 119 117 122 121 114
264 261 249 244 247 275 278 275 264 104 50 96 13 75 43 77 88 103 110 118 123 125 124 129 136 137 135 136 130 128 127 129 131 127 126 130 142 146 139 138 132 125 123 122 122 119 125 123 115
267 265 254 248 251 275 280 280 272 181 110 16 18 49 91 91 100 102 109 116 124 125 127 131 134 138 142 142 141 135 135 132 133 132 128 125 134 145 147 145 142 135 131 125 125 125 124 121 122
269 263 259 254 262 264 279 274 280 262 267 312 1 316 95 107 107 106 111 117 127 133 133 137 136 138 141 146 145 145 141 140 138 136 136 130 136 139 137 151 135 145 138 132 129 127 126 128 126
259 261 257 262 270 262 273 263 278 265 266 275 306 324 97 117 122 120 122 126 135 139 141 143 143 141 140 143 145 148 150 150 152 150 143 147 147 141 142 134 133 139 142 140 138 135 131 139 134
260 256 258 261 270 270 269 265 270 263 245 264 259 280 131 136 138 134 130 133 138 140 142 147 148 146 145 144 140 151 149 152 156 157 150 159 146 138 146 129 137 142 143 145 143 139 144 146 162
258 259 258 260 270 263 264 268 264 262 258 269 261 212 176 163 159 151 143 138 139 142 145 149 150 150 152 148 144 149 151 154 154 159 159 161 159 145 145 146 140 146 142 154 147 149 153 153 148
259 260 260 262 262 265 265 262 262 262 264 271 270 261 198 188 180 165 153 143 142 145 146 151 152 154 155 159 151 154 154 155 156 156 159 164 163 157 153 156 144 149 150 156 157 160 153 160 158
263 263 260 260 260 260 262 261 262 260 265 264 265 260 235 205 195 181 167 160 153 149 150 151 155 155 158 163 157 158 157 153 161 160 162 168 165 161 163 164 161 161 163 161 167 166 168 169 172
261 259 263 258 258 259 263 257 253 259 263 260 261 256 243 221 207 197 179 177 168 159 154 155 156 157 161 165 165 163 163 167 166 168 164 166 174 167 167 169 169 170 167 171 175 189 202 226 244
257 258 256 255 258 258 258 253 257 256 257 259 258 256 247 236 218 220 209 195 186 174 167 162 162 163 166 167 169 169 170 170 172 175 169 173 177 178 172 176 175 176 176 174 181 186 196 214 231
254 254 254 257 258 257 254 258 255 258 250 254 256 257 251 245 234 228 225 213 205 196 188 177 176 174 173 175 176 177 176 178 180 178 181 178 182 186 182 185 182 179 183 185 185 191 200 209 218
250 252 255 256 257 255 255 257 257 257 254 250 252 254 252 249 240 234 234 227 229 214 209 198 192 191 189 187 188 190 189 189 188 188 188 186 186 189 190 190 191 185 190 191 192 195 196 204 210
258 255 255 258 257 260 253 256 257 255 254 253 253 254 253 253 249 243 243 238 237 237 221 210 212 209 207 204 203 207 207 209 206 199 198 195 194 193 195 196 195 194 196 197 197 199 204 207 213
254 255 252 258 261 257 255 256 258 256 253 253 255 254 253 252 252 249 239 244 240 240 241 232 225 222 218 224 224 233 232 224 229 230 219 208 208 207 203 203 204 204 207 206 207 208 218 225 226
252 253 253 253 259 260 260 256 256 257 256 255 255 255 254 254 255 251 251 244 245 245 247 242 236 235 231 232 246 255 256 250 235 234 244 230 223 222 216 215 215 216 217 221 219 220 222 245 254
250 253 256 256 254 252 252 254 253 254 254 255 257 256 255 255 256 255 256 254 256 256 256 255 249 244 242 240 250 242 247 243 240 241 250 250 238 235 231 231 228 227 231 230 237 234 237 248 257
250 255 255 255 255 256 252 256 251 255 254 253 255 256 256 255 255 257 259 260 255 256 259 260 261 263 253 246 243 251 245 245 258 259 255 248 252 240 242 240 237 235 236 241 241 248 242 253 260
253 252 254 255 255 251 249 251 250 251 256 258 261 258 260 257 258 258 259 261 263 264 264 260 259 259 261 253 244 245 247 241 252 254 255 258 255 253 245 243 243 242 244 244 248 249 256 255 265
247 247 247 247 248 250 251 252 249 258 257 260 264 264 263 263 263 264 263 263 263 264 265 265 261 265 264 256 247 243 242 244 247 254 255 258 259 254 249 241 242 245 245 251 254 259 258 262 264
245 244 244 247 249 254 253 252 253 255 261 263 266 271 269 273 266 272 267 267 267 267 265 263 265 268 266 261 253 247 246 252 252 252 259 256 258 258 259 250 248 248 252 254 259 264 267 267 268
248 247 248 253 257 258 256 259 258 257 259 259 262 267 267 270 267 273 264 277 273 268 269 269 268 267 266 264 258 252 252 249 251 253 257 260 258 264 260 256 251 251 250 254 257 264 267 270 271
250 253 248 248 250 252 254 256 258 256 257 259 263 267 267 268 269 275 269 278 276 274 271 268 269 268 269 266 259 256 254 253 254 261 259 257 261 263 262 254 253 250 250 254 256 264 267 271 275
251 250 252 258 253 251 253 253 256 261 270 261 268 271 268 278 280 276 273 278 281 278 277 274 273 272 271 270 265 261 258 258 258 258 260 260 261 262 262 253 252 249 249 252 257 263 268 270 276
260 263 261 251 252 258 256 256 260 262 262 264 273 269 268 279 283 281 281 280 278 277 279 280 280 275 275 274 271 267 264 262 261 260 260 261 260 260 261 253 251 251 250 252 256 262 266 269 275